Frenchville, ME

9:32 PM EDT on April 19, 2018 (GMT -0400)
Northern Aroostook Regional

Weather History for KFVE - November, 2011

Change the Weather History Date:

Friday, November 25, 2011

  Actual Average Record
Temperature  
Mean Temperature 34 °F 26 °F  
Max Temperature 38 °F 32 °F 54 °F (2004)
Min Temperature 29 °F 20 °F 6 °F (1996)
Degree Days  
Heating Degree Days 31    
Month to date heating degree days 744  
Since 1 July heating degree days 1760  
Cooling Degree Days 0    
Month to date cooling degree days 0  
Year to date cooling degree days 87  
Moisture  
Dew Point 33 °F    
Average Humidity 95    
Maximum Humidity 100    
Minimum Humidity 86    
Precipitation  
Precipitation 0.00 in 0.10 in 1.04 in (2004)
Month to date precipitation 1.53 2.44  
Year to date precipitation 38.83 30.56  
Sea Level Pressure  
Sea Level Pressure 29.83 in    
Wind  
Wind Speed 8 mph (SSW)    
Max Wind Speed 17 mph    
Max Gust Speed 24 mph    
Visibility 5 miles    
Events Fog    
T = Trace of Precipitation, MM = Missing Value Source: NWS Daily Summary

Daily Weather History Graph

Daily Weather History Graph

Search for Another Location

Airport or City:

Astronomy

Nov. 25, 2011 Rise Set
Actual Time 6:51 AM EST 3:48 PM EST
Civil Twilight 6:16 AM EST 4:23 PM EST
Nautical Twilight 5:38 AM EST 5:01 PM EST
Astronomical Twilight 5:02 AM EST 5:37 PM EST
Moon 7:19 AM EST (11/25) 4:08 PM EST (11/25)
Length of Visible Light 10h 06m
Length of Day
8h 57m
New Moon, 0% of the Moon is Illuminated
Nov 25
New Moon
Dec 2
First Quarter
Dec 10
Full
Dec 17
Last Quarter
Dec 24
New

Hourly Weather History & Observations

Time (EST) Temp. Windchill Dew Point Humidity Pressure Visibility Wind Dir Wind Speed Gust Speed Precip Events Conditions
12:53 AM 28.9 °F 23.9 °F 27.0 °F 92% 29.95 in 6.0 mi SSE 4.6 mph - N/A   Overcast
1:53 AM 30.2 °F 25.4 °F 28.4 °F 93% 29.89 in 6.0 mi SSE 4.6 mph - N/A   Overcast
2:53 AM 30.2 °F 23.4 °F 28.4 °F 93% 29.90 in 7.0 mi South 6.9 mph - N/A   Overcast
3:35 AM 30.2 °F 23.4 °F 28.4 °F 93% 29.89 in 7.0 mi SSE 6.9 mph - N/A   Overcast
3:53 AM 30.0 °F 23.2 °F 28.9 °F 96% 29.92 in 7.0 mi SSE 6.9 mph - N/A   Overcast
4:53 AM 30.0 °F 23.2 °F 28.9 °F 96% 29.90 in 8.0 mi South 6.9 mph - N/A   Overcast
5:49 AM 30.2 °F 21.9 °F 30.2 °F 100% 29.87 in 6.0 mi South 9.2 mph - N/A   Overcast
5:53 AM 30.9 °F 22.2 °F 30.0 °F 96% 29.90 in 5.0 mi South 10.4 mph - N/A   Overcast
6:19 AM 30.2 °F 21.9 °F 30.2 °F 100% 29.86 in 3.0 mi South 9.2 mph - N/A   Overcast
6:28 AM 30.2 °F 21.9 °F 30.2 °F 100% 29.86 in 2.0 mi South 9.2 mph - N/A   Overcast
6:32 AM 30.2 °F 23.4 °F 30.2 °F 100% 29.87 in 1.5 mi South 6.9 mph - N/A   Overcast
6:41 AM 32.0 °F 25.6 °F 32.0 °F 100% 29.87 in 1.0 mi South 6.9 mph - N/A   Mist
6:50 AM 32.0 °F 25.6 °F 32.0 °F 100% 29.86 in 0.5 mi South 6.9 mph - N/A Fog Fog
6:53 AM 32.0 °F 25.6 °F 32.0 °F 100% 29.86 in 0.5 mi South 6.9 mph - N/A Fog Fog
7:53 AM 32.0 °F 24.8 °F 32.0 °F 100% 29.89 in 0.2 mi South 8.1 mph - N/A Fog Fog
8:53 AM 33.1 °F 27.7 °F 33.1 °F 100% 29.88 in 0.2 mi South 5.8 mph - N/A Fog Fog
9:53 AM 33.1 °F 26.9 °F 33.1 °F 100% 29.88 in 0.2 mi South 6.9 mph - N/A Fog Fog
10:53 AM 33.8 °F 29.6 °F 33.8 °F 100% 29.82 in 0.2 mi Variable 4.6 mph - N/A Fog Fog
11:53 AM 33.8 °F 27.0 °F 33.8 °F 100% 29.79 in 0.2 mi South 8.1 mph - N/A Fog Fog
12:53 PM 34.0 °F 27.2 °F 34.0 °F 100% 29.80 in 0.2 mi South 8.1 mph - N/A Fog Fog
1:53 PM 35.1 °F 30.1 °F 35.1 °F 100% 29.78 in 0.2 mi South 5.8 mph - N/A Fog Fog
2:40 PM 35.6 °F 29.9 °F 35.6 °F 100% 29.76 in 1.0 mi SSW 6.9 mph - N/A   Overcast
2:43 PM 35.6 °F 29.9 °F 35.6 °F 100% 29.76 in 2.0 mi SSW 6.9 mph - N/A   Overcast
2:53 PM 36.0 °F 29.6 °F 35.1 °F 97% 29.79 in 3.0 mi SSW 8.1 mph - N/A   Overcast
3:53 PM 37.4 °F 29.3 °F 35.6 °F 93% 29.76 in 9.0 mi WSW 12.7 mph - N/A   Overcast
4:53 PM 37.9 °F 30.0 °F 34.0 °F 86% 29.78 in 9.0 mi WSW 12.7 mph 21.9 mph N/A   Overcast
5:02 PM 37.4 °F 28.2 °F 33.8 °F 87% 29.76 in 9.0 mi West 16.1 mph 23.0 mph N/A   Overcast
5:53 PM 37.0 °F 28.1 °F 33.1 °F 86% 29.79 in 9.0 mi West 15.0 mph - N/A   Overcast
6:53 PM 37.9 °F 32.1 °F 34.0 °F 86% 29.80 in 9.0 mi West 8.1 mph - N/A   Overcast
7:01 PM 37.4 °F 30.8 °F 33.8 °F 87% 29.77 in 8.0 mi West 9.2 mph - N/A   Overcast
7:44 PM 37.4 °F 30.8 °F 33.8 °F 87% 29.76 in 8.0 mi WSW 9.2 mph - N/A   Overcast
7:53 PM 37.0 °F 31.0 °F 34.0 °F 89% 29.79 in 8.0 mi West 8.1 mph - N/A   Overcast
8:53 PM 37.9 °F 32.7 °F 35.1 °F 89% 29.79 in 8.0 mi West 6.9 mph - N/A   Overcast
9:08 PM 37.4 °F 32.8 °F 35.6 °F 93% 29.77 in 8.0 mi West 5.8 mph - N/A   Overcast
9:53 PM 37.0 °F 34.5 °F 35.1 °F 93% 29.81 in 7.0 mi WSW 3.5 mph - N/A   Overcast
10:53 PM 37.9 °F 32.7 °F 35.1 °F 89% 29.81 in 8.0 mi WSW 6.9 mph - N/A   Overcast
11:53 PM 37.9 °F 32.7 °F 35.1 °F 89% 29.82 in 8.0 mi SW 6.9 mph - N/A   Overcast